Precipitable_Water
0.74 0.76 0.78 0.82 0.83 0.82 0.92 0.90 0.80 0.69 0.76 0.86 0.86 1.05 1.09 1.11 1.11 1.12 1.11 1.12 1.09 1.04 1.00 0.94 0.90 0.87 0.81 0.78 0.74 0.70 0.67 0.63 0.59 0.57 0.55 0.55 0.56 0.56
0.73 0.76 0.77 0.83 0.82 0.85 0.88 0.84 0.90 0.82 0.72 0.87 0.90 0.97 0.98 1.04 1.05 1.04 1.05 1.06 1.05 1.01 0.97 0.89 0.85 0.80 0.78 0.75 0.72 0.67 0.62 0.59 0.56 0.56 0.58 0.57 0.54 0.51
0.72 0.75 0.75 0.82 0.82 0.81 0.82 0.82 0.84 0.84 0.77 0.76 0.84 0.93 0.93 0.96 0.96 0.98 1.00 0.99 0.97 0.92 0.88 0.83 0.80 0.78 0.76 0.73 0.70 0.66 0.62 0.58 0.56 0.56 0.53 0.51 0.48 0.44
0.72 0.76 0.77 0.80 0.81 0.84 0.80 0.82 0.77 0.84 0.83 0.73 0.80 0.78 0.78 0.86 0.88 0.90 0.89 0.90 0.87 0.87 0.85 0.83 0.80 0.77 0.72 0.70 0.67 0.63 0.58 0.56 0.55 0.50 0.46 0.42 0.42 0.41
0.77 0.77 0.78 0.79 0.78 0.83 0.84 0.78 0.73 0.79 0.81 0.73 0.71 0.74 0.74 0.75 0.78 0.78 0.81 0.82 0.81 0.83 0.81 0.78 0.75 0.71 0.69 0.67 0.63 0.59 0.56 0.53 0.48 0.43 0.41 0.41 0.36 0.36
0.83 0.82 0.84 0.81 0.79 0.86 0.85 0.81 0.75 0.74 0.73 0.68 0.68 0.69 0.68 0.69 0.72 0.72 0.70 0.71 0.69 0.73 0.73 0.72 0.70 0.67 0.63 0.61 0.58 0.55 0.50 0.46 0.41 0.40 0.39 0.35 0.33 0.31
0.88 0.84 0.85 0.86 0.88 0.91 0.88 0.86 0.80 0.73 0.71 0.67 0.67 0.65 0.64 0.66 0.67 0.72 0.67 0.67 0.69 0.70 0.68 0.68 0.63 0.60 0.56 0.55 0.53 0.48 0.44 0.38 0.40 0.36 0.35 0.31 0.29 0.27
0.82 0.82 0.86 0.90 0.89 0.90 0.88 0.86 0.86 0.77 0.70 0.69 0.68 0.68 0.69 0.68 0.70 0.71 0.68 0.64 0.62 0.70 0.65 0.60 0.60 0.58 0.56 0.50 0.46 0.40 0.37 0.38 0.36 0.32 0.28 0.28 0.27 0.26
0.85 0.85 0.85 0.88 0.88 0.88 0.88 0.86 0.84 0.85 0.82 0.78 0.74 0.70 0.70 0.72 0.72 0.69 0.68 0.64 0.61 0.62 0.62 0.57 0.59 0.50 0.48 0.42 0.36 0.36 0.37 0.34 0.29 0.27 0.26 0.25 0.24 0.24
0.83 0.86 0.84 0.85 0.87 0.87 0.81 0.76 0.77 0.79 0.80 0.78 0.77 0.77 0.76 0.74 0.73 0.70 0.66 0.64 0.63 0.60 0.57 0.47 0.47 0.40 0.37 0.35 0.35 0.37 0.31 0.27 0.25 0.24 0.24 0.24 0.23 0.21
0.83 0.84 0.85 0.84 0.85 0.86 0.78 0.74 0.71 0.74 0.80 0.81 0.79 0.77 0.77 0.76 0.74 0.69 0.62 0.58 0.53 0.52 0.50 0.43 0.37 0.35 0.33 0.32 0.32 0.30 0.25 0.22 0.23 0.23 0.23 0.22 0.21 0.21
0.79 0.81 0.83 0.83 0.83 0.83 0.78 0.74 0.70 0.70 0.73 0.73 0.71 0.69 0.69 0.68 0.67 0.65 0.61 0.53 0.46 0.41 0.40 0.36 0.34 0.31 0.26 0.25 0.23 0.22 0.21 0.22 0.22 0.22 0.21 0.20 0.22 0.22
0.74 0.75 0.78 0.80 0.80 0.79 0.78 0.75 0.72 0.71 0.69 0.65 0.62 0.62 0.60 0.59 0.56 0.54 0.51 0.44 0.37 0.36 0.39 0.34 0.28 0.24 0.20 0.16 0.19 0.20 0.21 0.21 0.22 0.21 0.19 0.20 0.23 0.24
0.71 0.74 0.76 0.77 0.76 0.76 0.74 0.73 0.72 0.67 0.61 0.58 0.58 0.55 0.52 0.51 0.49 0.45 0.44 0.42 0.37 0.34 0.33 0.28 0.23 0.19 0.17 0.16 0.16 0.20 0.22 0.22 0.21 0.18 0.19 0.21 0.22 0.22
0.72 0.73 0.73 0.73 0.72 0.71 0.71 0.69 0.66 0.61 0.57 0.55 0.53 0.51 0.47 0.46 0.45 0.40 0.37 0.36 0.34 0.31 0.29 0.25 0.21 0.21 0.20 0.18 0.18 0.20 0.20 0.19 0.19 0.18 0.19 0.21 0.20 0.19
0.69 0.68 0.69 0.69 0.69 0.67 0.65 0.64 0.61 0.59 0.56 0.51 0.47 0.45 0.45 0.40 0.36 0.34 0.31 0.29 0.26 0.23 0.24 0.24 0.23 0.22 0.20 0.22 0.22 0.20 0.21 0.17 0.18 0.19 0.20 0.21 0.20 0.19
0.66 0.64 0.62 0.61 0.60 0.60 0.60 0.59 0.56 0.52 0.46 0.46 0.44 0.39 0.36 0.34 0.32 0.30 0.28 0.24 0.20 0.19 0.19 0.22 0.24 0.24 0.24 0.23 0.21 0.21 0.20 0.18 0.19 0.20 0.20 0.17 0.17 0.17
0.61 0.58 0.57 0.57 0.57 0.56 0.54 0.50 0.48 0.47 0.44 0.40 0.37 0.35 0.32 0.29 0.27 0.27 0.24 0.21 0.19 0.20 0.21 0.23 0.23 0.23 0.23 0.24 0.26 0.22 0.20 0.18 0.19 0.20 0.20 0.16 0.14 0.16
0.56 0.55 0.55 0.55 0.54 0.53 0.50 0.48 0.44 0.41 0.39 0.35 0.33 0.29 0.28 0.27 0.25 0.23 0.22 0.21 0.22 0.23 0.24 0.25 0.24 0.23 0.20 0.19 0.23 0.25 0.19 0.18 0.18 0.18 0.17 0.16 0.15 0.15
0.55 0.53 0.53 0.53 0.51 0.49 0.45 0.41 0.39 0.37 0.34 0.31 0.29 0.28 0.27 0.25 0.23 0.23 0.23 0.23 0.24 0.24 0.25 0.25 0.25 0.24 0.22 0.20 0.20 0.21 0.21 0.18 0.16 0.15 0.16 0.17 0.18 0.19
0.52 0.52 0.51 0.49 0.46 0.42 0.39 0.37 0.34 0.31 0.29 0.29 0.28 0.28 0.27 0.26 0.25 0.26 0.26 0.27 0.27 0.26 0.25 0.25 0.26 0.27 0.25 0.23 0.20 0.19 0.18 0.17 0.16 0.16 0.17 0.16 0.15 0.15
0.51 0.50 0.47 0.43 0.40 0.37 0.34 0.31 0.30 0.30 0.30 0.29 0.29 0.29 0.28 0.28 0.28 0.28 0.28 0.27 0.27 0.27 0.26 0.26 0.26 0.25 0.23 0.20 0.16 0.15 0.15 0.16 0.16 0.16 0.17 0.17 0.16 0.13
0.49 0.44 0.40 0.36 0.34 0.32 0.31 0.31 0.31 0.31 0.31 0.31 0.31 0.30 0.30 0.30 0.30 0.30 0.29 0.28 0.27 0.27 0.26 0.25 0.24 0.22 0.18 0.16 0.15 0.15 0.15 0.16 0.15 0.13 0.14 0.17 0.17 0.18
Wind_Speed
39 38 38 38 38 39 37 36 34 35 33 33 32 34 33 32 33 34 35 36 36 34 34 32 33 33 33 33 33 33 33 34 34 34 35 37 38 39
38 38 38 37 38 38 38 37 36 34 33 33 32 32 33 34 33 32 32 33 34 34 34 34 34 34 33 33 33 34 34 34 34 35 36 37 37 38
40 39 39 38 37 37 37 36 35 35 32 32 33 33 32 31 31 31 32 33 33 33 33 32 33 32 33 33 34 34 34 34 34 36 36 36 37 37
40 40 38 38 37 36 36 35 34 34 32 31 30 30 31 32 31 31 29 29 30 30 32 32 32 32 32 33 33 33 33 34 35 35 36 36 37 37
38 38 37 37 37 36 36 36 35 34 33 32 30 30 30 30 30 30 30 30 30 30 30 31 31 31 32 32 32 33 32 33 34 35 36 36 36 37
34 37 36 35 35 34 34 34 33 33 33 31 29 29 29 30 30 30 28 29 30 30 30 29 30 31 30 31 31 31 32 33 34 34 35 35 35 35
29 31 34 34 34 33 32 32 31 31 31 30 29 29 28 28 29 30 29 29 29 29 29 29 29 30 30 31 31 31 32 33 33 33 33 33 33 33
28 29 33 31 31 31 32 32 30 29 29 29 27 27 27 27 29 28 28 27 26 28 29 29 29 29 29 29 31 31 30 30 30 30 30 30 30 31
24 26 28 29 29 28 28 28 29 30 29 27 27 26 26 26 25 25 25 25 25 26 26 27 28 28 28 29 29 28 27 26 26 26 27 29 30 32
25 25 25 29 26 24 25 24 23 23 24 24 24 23 22 23 24 24 23 23 23 24 24 24 25 26 26 26 25 23 22 23 24 25 27 29 31 33
22 22 24 23 23 24 22 21 21 21 20 19 19 18 18 19 20 21 21 21 21 21 21 21 22 22 21 20 20 20 20 21 24 26 27 30 32 34
20 18 21 23 24 21 20 20 19 18 18 16 16 15 14 15 16 17 18 17 17 17 18 17 17 16 16 17 16 18 20 22 24 26 28 32 33 34
20 21 21 22 23 19 20 19 17 17 16 15 14 13 12 12 13 13 13 14 14 14 14 14 14 14 14 15 16 17 19 23 25 26 30 32 34 36
21 20 22 22 21 20 18 19 18 16 15 14 13 12 10 10 11 11 11 11 12 11 11 12 12 12 13 14 15 17 21 24 25 27 31 33 35 35
20 20 23 21 20 19 19 18 16 16 16 13 12 11 11 11 10 10 10 9 8 8 9 9 10 11 13 14 17 19 22 24 25 30 32 34 35 35
21 21 21 21 20 18 17 17 16 15 15 13 12 11 10 10 9 9 8 8 7 8 8 9 10 12 14 16 18 21 23 25 29 31 33 34 35 35
22 21 20 19 18 17 17 17 15 15 14 13 12 11 10 9 8 8 8 7 7 8 8 9 11 13 15 17 19 21 25 27 30 32 33 34 35 36
21 20 19 18 17 17 17 16 15 14 13 12 12 11 10 9 8 7 7 6 6 6 8 10 13 14 16 18 20 23 26 28 31 33 34 34 35 36
18 18 18 18 18 17 17 16 14 13 13 12 11 10 9 8 7 6 6 6 6 7 9 11 14 16 18 20 22 24 27 30 32 34 35 35 36 37
17 17 18 18 17 16 16 15 14 14 13 12 11 10 9 8 7 6 5 5 6 8 11 13 15 17 19 21 24 27 30 31 33 35 35 35 36 37
17 17 17 17 16 16 16 15 15 14 12 11 10 9 8 7 6 5 5 6 8 10 12 15 17 19 20 22 25 27 31 34 34 35 35 35 34 32
18 18 17 17 17 16 16 15 14 13 12 10 9 8 7 6 6 6 7 8 10 11 14 16 18 19 21 23 26 29 31 33 34 34 34 34 32 29
17 17 18 18 17 16 15 14 13 12 11 9 8 7 6 6 6 7 7 9 10 12 15 17 19 20 22 25 27 29 31 32 33 33 32 32 30 28
Wind_Direction
251 250 248 245 243 241 241 240 241 242 245 243 244 243 242 246 248 248 245 245 247 249 257 263 266 271 275 278 282 285 286 289 290 291 292 293 294 295
252 248 246 244 242 241 239 241 240 240 243 243 244 244 246 247 247 248 246 244 245 251 256 263 267 272 275 277 281 284 286 288 289 292 294 294 295 296
250 247 245 241 241 239 238 238 237 238 240 246 244 244 244 245 247 247 247 247 250 253 256 261 267 271 275 278 281 284 286 288 290 292 294 295 296 296
247 244 243 239 238 238 235 235 236 237 239 241 240 243 246 246 247 248 248 246 249 253 257 262 267 271 276 278 281 284 286 288 291 293 294 295 296 296
244 239 239 237 235 235 235 235 236 237 236 240 243 244 245 245 244 247 246 248 253 255 258 264 268 273 277 279 282 284 286 289 291 293 294 295 296 297
241 236 235 234 231 233 233 233 235 235 236 238 242 242 245 246 245 244 246 250 254 255 259 264 269 273 276 280 281 284 287 289 291 293 294 295 296 297
237 233 230 231 232 231 230 231 232 234 235 236 239 243 245 244 244 245 251 251 254 257 261 266 270 273 277 280 282 285 288 290 291 293 295 296 297 298
235 233 226 228 228 228 229 231 231 229 231 237 238 240 244 243 246 244 246 254 253 258 263 267 270 274 277 279 282 285 287 290 292 294 296 298 299 301
233 225 222 224 224 226 224 224 229 230 234 237 236 242 241 242 244 242 246 250 257 261 262 267 271 275 277 280 283 284 285 290 294 296 298 300 302 303
229 223 222 216 216 214 217 222 223 225 231 233 236 238 242 243 240 246 246 250 257 262 265 269 273 276 278 281 282 281 285 290 295 299 302 303 305 306
215 219 210 205 205 205 211 212 216 224 224 224 231 234 234 235 238 243 248 252 259 261 265 270 274 276 277 279 279 280 286 292 299 302 304 306 308 309
209 203 202 202 201 204 209 210 210 214 213 217 222 227 230 232 239 244 245 250 257 261 264 268 272 276 279 280 281 284 289 295 301 304 305 309 310 311
209 207 204 199 197 204 204 205 207 207 208 207 206 212 226 237 240 240 243 248 254 262 262 265 269 276 279 283 287 290 292 301 304 305 310 311 312 313
204 205 202 200 202 199 198 197 196 198 199 199 205 217 225 230 234 240 245 248 258 256 259 264 270 277 283 288 291 296 300 304 306 309 312 313 315 316
198 200 190 191 188 189 189 192 196 196 197 203 209 216 222 229 232 236 241 245 245 254 263 271 276 282 288 292 297 302 307 309 309 313 314 315 316 316
183 181 184 185 187 189 192 193 196 199 201 204 207 214 224 226 227 226 225 235 248 259 270 278 286 291 295 298 301 306 309 310 313 315 316 315 316 317
179 182 183 186 189 190 193 193 194 195 201 206 211 213 213 214 215 223 234 245 253 261 274 285 297 298 299 302 306 308 312 313 315 316 317 317 317 318
180 182 184 186 187 188 186 188 193 196 201 204 202 201 203 207 215 225 234 243 252 265 285 298 305 306 308 308 309 313 314 315 317 318 318 318 317 319
179 183 184 184 182 183 185 188 192 195 191 190 192 196 200 206 212 221 231 244 260 281 295 303 310 312 313 314 313 316 317 318 319 319 319 318 317 318
175 176 177 179 181 182 183 185 185 183 185 187 190 194 199 205 213 222 237 256 275 292 303 308 313 315 315 315 316 319 321 320 321 320 320 320 319 319
173 173 174 174 175 177 177 177 177 179 182 184 188 194 201 206 216 227 250 270 286 299 307 312 314 316 317 319 321 321 324 325 323 322 322 322 322 322
170 170 171 172 172 171 171 172 173 175 179 183 189 197 205 216 228 247 268 284 296 304 309 314 317 319 321 322 323 323 325 328 328 328 327 327 325 325
169 169 168 167 167 168 169 171 174 178 184 189 195 205 219 232 250 265 280 293 301 308 313 317 321 323 324 324 326 327 328 330 331 331 331 333 332 331